[[{"header":{"parameterUnit":"m.s-1","parameterCategory":1,"la1":30.2991,"la2":30.254,"lo1":-89.0895,"lo2":-89.0444,"dy":0.0017,"dx":0.0017,"nx":28,"ny":28,"refTime":"2024-12-05T09:00:00:Z","depth":0,"parameterNumber":2,"parameterNumberName":"U-component_of_WINDS"},"data":[0,0,0,0,0,0,0,0,0,0,0,0,0,0,0,0,0,0,0,0,0,0,0,0,0,0,0,0,0,0,0,0,0,0,0,0,0,0,0,0,0,0,0,0,0,0,0,0,0,0,0,0,0,0,0,0,0,0,-1.2881,-1.2881,0,-1.2958,-1.2959,-1.296,-1.2925,-1.2923,-1.2921,-1.2919,-1.3007,-1.3011,-1.3015,0,0,0,0,0,0,0,0,0,0,0,0,0,-1.2711,-1.2714,-1.288,-1.2881,-1.2882,-1.2958,-1.2959,-1.296,-1.2925,-1.2923,-1.2921,-1.2918,-1.3005,-1.301,-1.3015,0,0,0,0,0,0,0,0,0,0,0,0,0,-1.2786,-1.2715,-1.288,-1.2874,-1.2874,-1.2958,-1.2959,-1.296,-1.2926,-1.2923,-1.292,-1.2917,-1.3004,-1.301,-1.3016,-1.3112,0,0,-1.3035,-1.3037,0,0,0,0,0,0,0,0,-1.2782,-1.2793,-1.2874,-1.2874,-1.2875,-1.2929,-1.2931,-1.3012,-1.2927,-1.2907,-1.2919,-1.2916,-1.2984,-1.2991,-1.3012,-1.3117,-1.312,-1.3035,-1.3039,-1.3042,-1.3043,0,0,0,0,0,0,0,-1.2777,-1.2789,-1.2911,-1.2875,-1.2876,-1.287,-1.2878,-1.2946,-1.2961,-1.2908,-1.2906,-1.2915,-1.2983,-1.3007,-1.3014,-1.3122,-1.3035,-1.3041,-1.3044,-1.3047,-1.3312,-1.3316,0,0,0,0,0,0,-1.2771,-1.2785,-1.2909,-1.2914,-1.282,-1.2876,-1.2884,-1.2915,-1.296,-1.2964,-1.2917,-1.2913,-1.2997,-1.3007,-1.3017,-1.3135,-1.3042,-1.3047,-1.3051,-1.3309,-1.3313,-1.3317,0,0,0,0,0,0,-1.2767,-1.2782,-1.2906,-1.2849,-1.2864,-1.2882,-1.2916,-1.2918,-1.2941,-1.2967,-1.297,-1.2938,-1.2995,-1.3008,-1.3089,-1.3137,-1.305,-1.3056,-1.3305,-1.331,-1.3315,-1.337,0,0,0,0,0,0,-1.2762,-1.2781,-1.2815,-1.285,-1.2867,-1.2974,-1.2919,-1.2921,-1.2951,-1.2946,-1.2987,-1.2991,-1.2994,-1.308,-1.3095,-1.3144,-1.3061,-1.3301,-1.3307,-1.3313,-1.3364,-1.3377,-1.3387,0,0,0,0,0,-1.2756,-1.2829,-1.2817,-1.2833,-1.291,-1.2977,-1.2987,-1.2987,-1.2954,-1.2991,-1.3008,-1.299,-1.313,-1.3089,-1.3106,-1.3157,-1.3298,-1.3306,-1.3313,-1.3359,-1.3374,-1.3387,0,0,0,0,0,0,-1.2802,-1.2833,-1.2821,-1.2906,-1.2939,-1.297,-1.3016,-1.3002,-1.3047,-1.3041,-1.3041,-1.3051,-1.3135,-1.3154,-1.3108,-1.3255,-1.3209,-1.3221,-1.3239,-1.3253,-1.3265,-1.3258,-1.3066,0,0,0,0,0,-1.2822,-1.287,-1.2896,-1.2969,-1.2986,-1.2999,-1.3027,-1.3025,-1.306,-1.3074,-1.3097,-1.3134,-1.3186,-1.3221,-1.3271,-1.3367,-1.3377,-1.3412,-1.3423,-1.3432,-1.3442,-1.3497,-1.3514,-1.3341,-1.3341,-1.3341,0,0,-1.2864,-1.2887,-1.2918,-1.2979,-1.3004,-1.3057,-1.301,-1.3068,-1.3108,-1.3083,-1.316,-1.3179,-1.3221,-1.331,-1.3351,-1.3329,-1.3492,-1.3442,-1.3449,-1.3454,-1.3507,-1.3523,-1.3538,-1.3346,-1.3346,-1.3345,0,0,-1.2967,-1.2988,-1.3052,-1.3078,-1.3116,-1.3124,-1.314,-1.3174,-1.3185,-1.3262,-1.3245,-1.3295,-1.3385,-1.3415,-1.3443,-1.3561,-1.3546,-1.3577,-1.3637,-1.3691,-1.3705,-1.3717,-1.376,-1.3776,-1.3587,-1.3587,-1.3587,0,-1.3015,-1.3091,-1.3087,-1.3147,-1.3176,-1.3154,-1.322,-1.3247,-1.33,-1.3322,-1.3296,-1.341,-1.3436,-1.3534,-1.3563,-1.3585,-1.3605,-1.3572,-1.3702,-1.3715,-1.3726,-1.3768,-1.3784,-1.3591,-1.359,-1.359,-1.359,0,-1.3149,-1.3203,-1.325,-1.33,-1.3335,-1.3397,-1.3406,-1.3442,-1.3438,-1.345,-1.3531,-1.3562,-1.3618,-1.3641,-1.3638,-1.374,-1.3725,-1.3701,-1.3655,-1.3746,-1.3785,-1.3801,-1.3596,-1.3595,-1.3594,-1.3593,0,0,-1.3282,-1.333,-1.3347,-1.3371,-1.3412,-1.3455,-1.3519,-1.3572,-1.3604,-1.3642,-1.3697,-1.3775,-1.3753,-1.3785,-1.3785,-1.3832,-1.3926,-1.3803,-1.3804,-1.3826,-1.4043,-1.4061,-1.4079,-1.3917,-1.392,-1.3922,-1.404,0,-1.3389,-1.3496,-1.3496,-1.3598,-1.3649,-1.363,-1.3686,-1.372,-1.3733,-1.3782,-1.3798,-1.3853,-1.382,-1.3839,-1.3885,-1.3905,-1.397,-1.3896,-1.3971,-1.3973,-1.3961,-1.4099,-1.4118,-1.4228,-1.4055,-1.4058,-1.406,0,-1.3527,-1.3568,-1.3674,-1.3709,-1.3731,-1.3781,-1.3831,-1.3876,-1.3915,-1.3922,-1.3958,-1.3952,-1.402,-1.3973,-1.4069,-1.4019,-1.405,-1.4065,-1.4069,-1.4076,-1.4022,-1.4112,-1.4262,-1.4279,-1.4084,-1.4082,-1.408,0,-1.3615,-1.3697,-1.3771,-1.3792,-1.3835,-1.3871,-1.3891,-1.3927,-1.396,-1.4005,-1.4027,-1.408,-1.411,-1.4153,-1.4162,-1.4126,-1.426,-1.4212,-1.427,-1.427,-1.4298,-1.4296,-1.4457,-1.4318,-1.4317,-1.4317,-1.4317,0,-1.3734,-1.38,-1.3811,-1.3857,-1.3931,-1.3933,-1.4007,-1.4025,-1.4058,-1.4109,-1.4098,-1.4147,-1.4156,-1.4208,-1.4217,-1.4297,-1.431,-1.432,-1.4321,-1.4321,-1.432,-1.4341,-1.4334,-1.4321,-1.432,-1.432,-1.4319,0,-1.3844,-1.3854,-1.3934,-1.3969,-1.3979,-1.4033,-1.4064,-1.4109,-1.4122,-1.4188,-1.4203,-1.4225,-1.4286,-1.43,-1.4373,-1.4379,-1.4474,-1.4468,-1.446,-1.446,-1.4517,-1.4511,-1.4697,-1.4722,-1.4566,-1.4567,-1.4569,0,-1.392,-1.397,-1.401,-1.4042,-1.4063,-1.4116,-1.4149,-1.4154,-1.419,-1.4239,-1.428,-1.4339,-1.4387,-1.4486,-1.451,-1.4567,-1.4563,-1.4624,-1.4572,-1.457,-1.4565,-1.4562,-1.4568,-1.4634,-1.4636,-1.4637,-1.4638,0,-1.4053,-1.4056,-1.4103,-1.4152,-1.4192,-1.4232,-1.427,-1.4298,-1.4309,-1.435,-1.4411,-1.4448,-1.4523,-1.4583,-1.464,-1.4665,-1.4655,-1.4655,-1.4671,-1.4671,-1.4665,-1.467,-1.4488,-1.465,-1.4649,-1.4648,-1.4648,-1.4647,-1.4149,-1.4193,-1.4228,-1.4282,-1.4311,-1.4347,-1.4392,-1.4411,-1.4461,-1.452,-1.4521,-1.4589,-1.463,-1.4705,-1.4734,-1.4789,-1.477,-1.4794,-1.48,-1.4806,-1.4811,-1.4656,-1.4799,-1.4799,-1.4799,-1.4798,-1.4798,0,-1.4283,-1.4305,-1.4354,-1.4407,-1.445,-1.4434,-1.4476,-1.4514,-1.4573,-1.4611,-1.4658,-1.473,-1.4789,-1.4818,-1.4878,-1.4917,-1.4914,-1.4932,-1.4929,-1.4936,-1.4824,-1.4804,-1.4934,-1.4934,-1.4934,-1.4933,-1.4933,-1.4933,-1.4357,-1.4431,-1.4439,-1.4529,-1.4552,-1.4615,-1.4641,-1.4676,-1.4706,-1.4786,-1.4834,-1.4853,-1.4888,-1.4951,-1.5005,-1.5013,-1.5036,-1.5057,-1.5062,-1.4957,-1.4943,-1.493,-1.4911,-1.5062,-1.5062,-1.517,-1.5171,-1.5171]},{"header":{"parameterUnit":"m.s-1","parameterCategory":1,"la1":30.2991,"la2":30.254,"lo1":-89.0895,"lo2":-89.0444,"dy":0.0017,"dx":0.0017,"nx":28,"ny":28,"refTime":"2024-12-05T09:00:00:Z","depth":0,"parameterNumber":3,"parameterNumberName":"V-component_of_WINDS"},"data":[0,0,0,0,0,0,0,0,0,0,0,0,0,0,0,0,0,0,0,0,0,0,0,0,0,0,0,0,0,0,0,0,0,0,0,0,0,0,0,0,0,0,0,0,0,0,0,0,0,0,0,0,0,0,0,0,0,0,-3.1612,-3.161,0,-3.1485,-3.1484,-3.1482,-3.1552,-3.1556,-3.1559,-3.1563,-3.1417,-3.141,-3.1403,0,0,0,0,0,0,0,0,0,0,0,0,0,-3.1899,-3.1893,-3.1612,-3.161,-3.1609,-3.1486,-3.1484,-3.1482,-3.1552,-3.1556,-3.156,-3.1564,-3.142,-3.1411,-3.1403,0,0,0,0,0,0,0,0,0,0,0,0,0,-3.1773,-3.1892,-3.1612,-3.1629,-3.1629,-3.1486,-3.1484,-3.1482,-3.1551,-3.1556,-3.1561,-3.1566,-3.1422,-3.1412,-3.1401,-3.1229,0,0,-3.1369,-3.1364,0,0,0,0,0,0,0,0,-3.178,-3.1762,-3.1628,-3.1628,-3.1628,-3.154,-3.1532,-3.1396,-3.1549,-3.158,-3.1563,-3.1569,-3.1453,-3.144,-3.1404,-3.1223,-3.1216,-3.1368,-3.1361,-3.1357,-3.1354,0,0,0,0,0,0,0,-3.1789,-3.1768,-3.1561,-3.1626,-3.1626,-3.1638,-3.1626,-3.1506,-3.1488,-3.1578,-3.1583,-3.1568,-3.1454,-3.1414,-3.1401,-3.1214,-3.1368,-3.1358,-3.1352,-3.1348,-3.088,-3.0875,0,0,0,0,0,0,-3.1799,-3.1775,-3.1565,-3.1558,-3.1719,-3.1629,-3.1615,-3.1563,-3.1489,-3.1484,-3.1563,-3.1571,-3.143,-3.1414,-3.1396,-3.1185,-3.1357,-3.1347,-3.134,-3.0886,-3.0879,-3.0873,0,0,0,0,0,0,-3.1805,-3.1779,-3.157,-3.1668,-3.1642,-3.1618,-3.1558,-3.1557,-3.1518,-3.1479,-3.1474,-3.1527,-3.1434,-3.1411,-3.127,-3.1181,-3.1342,-3.1332,-3.0893,-3.0884,-3.0876,-3.0765,0,0,0,0,0,0,-3.1812,-3.1781,-3.1719,-3.1666,-3.1637,-3.145,-3.1553,-3.1551,-3.1501,-3.1511,-3.1444,-3.1437,-3.1436,-3.1286,-3.126,-3.117,-3.1324,-3.0901,-3.0889,-3.0879,-3.0776,-3.0753,-3.0734,0,0,0,0,0,-3.1823,-3.169,-3.1715,-3.1689,-3.1559,-3.1445,-3.1428,-3.1434,-3.1494,-3.1428,-3.1403,-3.1439,-3.1198,-3.1271,-3.1242,-3.1147,-3.0906,-3.0893,-3.088,-3.0786,-3.0758,-3.0734,0,0,0,0,0,0,-3.1726,-3.1683,-3.171,-3.1558,-3.1506,-3.1458,-3.1374,-3.1404,-3.1329,-3.134,-3.1347,-3.1331,-3.1183,-3.1152,-3.1235,-3.0975,-3.1061,-3.1041,-3.0999,-3.0972,-3.0951,-3.0958,-3.1315,0,0,0,0,0,-3.1689,-3.1606,-3.157,-3.1439,-3.1412,-3.1398,-3.1348,-3.1358,-3.1302,-3.1278,-3.1242,-3.1182,-3.1092,-3.1032,-3.0947,-3.0775,-3.0757,-3.0696,-3.0674,-3.0657,-3.0637,-3.0538,-3.0508,-3.0828,-3.0829,-3.0829,0,0,-3.1607,-3.1574,-3.1519,-3.1419,-3.1379,-3.1286,-3.1378,-3.1277,-3.1206,-3.1261,-3.1125,-3.1097,-3.103,-3.0872,-3.08,-3.0841,-3.0546,-3.064,-3.0627,-3.0615,-3.0521,-3.0491,-3.0464,-3.0819,-3.0821,-3.0822,0,0,-3.141,-3.138,-3.1265,-3.1225,-3.1166,-3.1158,-3.113,-3.1078,-3.1063,-3.0929,-3.0967,-3.0882,-3.0728,-3.0677,-3.0631,-3.0418,-3.0445,-3.039,-3.0275,-3.0179,-3.0153,-3.0131,-3.0047,-3.0018,-3.0372,-3.0372,-3.0372,0,-3.1314,-3.1182,-3.12,-3.1096,-3.1048,-3.1101,-3.098,-3.0939,-3.0853,-3.0816,-3.0866,-3.0673,-3.0632,-3.046,-3.0408,-3.0372,-3.0335,-3.0393,-3.0157,-3.0134,-3.0113,-3.0033,-3.0003,-3.0365,-3.0366,-3.0366,-3.0367,0,-3.1063,-3.0971,-3.0884,-3.0805,-3.0748,-3.0636,-3.0633,-3.0573,-3.0589,-3.0574,-3.0433,-3.0387,-3.0292,-3.0254,-3.0267,-3.0082,-3.0109,-3.0158,-3.0242,-3.0075,-3.0,-2.997,-3.0355,-3.0357,-3.0359,-3.0361,0,0,-3.0795,-3.0731,-3.0698,-3.0661,-3.0601,-3.0527,-3.0417,-3.033,-3.0274,-3.0215,-3.0117,-2.9988,-3.0032,-2.998,-2.9988,-2.9905,-2.973,-2.9963,-2.9962,-2.9915,-2.9516,-2.9474,-2.9439,-2.9753,-2.9748,-2.9743,-2.952,0,-3.0588,-3.04,-3.0414,-3.0233,-3.0144,-3.0194,-3.0097,-3.0047,-3.0031,-2.995,-2.9931,-2.9836,-2.9907,-2.9875,-2.9796,-2.9769,-2.9649,-2.9786,-2.9654,-2.9649,-2.9661,-2.9401,-2.9355,-2.9146,-2.9491,-2.9486,-2.9483,0,-3.032,-3.0256,-3.0067,-3.002,-2.9983,-2.9896,-2.9815,-2.974,-2.9682,-2.9676,-2.962,-2.9642,-2.9524,-2.9619,-2.9453,-2.9546,-2.9494,-2.9473,-2.9465,-2.9445,-2.9549,-2.9366,-2.9081,-2.9046,-2.9438,-2.9442,-2.9445,0,-3.0134,-3.0,-2.9869,-2.9837,-2.978,-2.9717,-2.9689,-2.9639,-2.9584,-2.9514,-2.9477,-2.9393,-2.9343,-2.9275,-2.9271,-2.9342,-2.9101,-2.9197,-2.9085,-2.9085,-2.9025,-2.9027,-2.8718,-2.9006,-2.9006,-2.9007,-2.9008,0,-2.9897,-2.9777,-2.9785,-2.9702,-2.9569,-2.9587,-2.9452,-2.9431,-2.9386,-2.9296,-2.9336,-2.925,-2.9255,-2.9166,-2.9163,-2.9022,-2.9002,-2.8988,-2.8987,-2.898,-2.898,-2.8938,-2.8949,-2.8999,-2.9001,-2.9002,-2.9004,0,-2.9662,-2.9664,-2.9522,-2.9483,-2.947,-2.9372,-2.9335,-2.9254,-2.9245,-2.9131,-2.9105,-2.9087,-2.8986,-2.8978,-2.8859,-2.8857,-2.8684,-2.8703,-2.8704,-2.8704,-2.859,-2.8597,-2.8236,-2.8186,-2.8515,-2.8512,-2.8509,0,-2.9505,-2.9415,-2.9367,-2.9313,-2.9283,-2.9195,-2.9141,-2.9155,-2.9096,-2.9026,-2.8952,-2.8856,-2.8778,-2.8612,-2.8584,-2.8493,-2.8504,-2.8385,-2.849,-2.8484,-2.8492,-2.8494,-2.8481,-2.836,-2.8357,-2.8354,-2.8352,0,-2.9225,-2.9231,-2.9155,-2.9078,-2.9015,-2.8954,-2.8897,-2.8849,-2.8856,-2.8787,-2.8687,-2.8627,-2.8508,-2.8408,-2.832,-2.8286,-2.8315,-2.8321,-2.8288,-2.8274,-2.8275,-2.8265,-2.8638,-2.8326,-2.8329,-2.833,-2.8332,-2.8333,-2.9019,-2.894,-2.8894,-2.8806,-2.8767,-2.8713,-2.8635,-2.8618,-2.8536,-2.8443,-2.8457,-2.8342,-2.8286,-2.817,-2.813,-2.8037,-2.8076,-2.8032,-2.8018,-2.8005,-2.7989,-2.8299,-2.8022,-2.8022,-2.8023,-2.8024,-2.8024,0,-2.8734,-2.8708,-2.8629,-2.855,-2.848,-2.8526,-2.8466,-2.8401,-2.8302,-2.825,-2.8175,-2.8057,-2.7961,-2.7929,-2.7835,-2.7766,-2.7777,-2.774,-2.7739,-2.773,-2.7963,-2.7996,-2.7732,-2.7732,-2.7732,-2.7732,-2.7732,-2.7732,-2.8576,-2.8443,-2.8444,-2.829,-2.8264,-2.8156,-2.8117,-2.8065,-2.8024,-2.7892,-2.7815,-2.7797,-2.775,-2.7654,-2.7566,-2.7559,-2.7517,-2.7472,-2.7469,-2.7685,-2.7714,-2.7742,-2.7773,-2.7465,-2.7465,-2.7243,-2.7241,-2.7239]}]]